This is the latest recevied weather packets stored in our database for station/object KC9MWQ-13. If no packets are shown the sender has not sent any weather packets the latest 10 day(s).
| Time | Temp. | Humidity | Pressure | Rain* | Wind** | Luminosity | Snow |
|---|---|---|---|---|---|---|---|
| 1777481529 | 15° C | 88% | 1012 hPa | 0 mm | - | 328 W/m² | - |
| 1777481226 | 15° C | 87% | 1012.4 hPa | 0 mm | - | 313 W/m² | - |
| 1777480923 | 15° C | 89% | 1012.3 hPa | 0 mm | - | 287 W/m² | - |
| 1777480619 | 15° C | 88% | 1012.1 hPa | 0 mm | - | 160 W/m² | - |
| 1777480316 | 15° C | 88% | 1012.2 hPa | 0 mm | - | 165 W/m² | - |
| 1777480011 | 15.56° C | 87% | 1012.1 hPa | 0 mm | - | 191 W/m² | - |
| 1777479709 | 15.56° C | 89% | 1012.4 hPa | 0 mm | - | 744 W/m² | - |
| 1777479407 | 15.56° C | 89% | 1012.2 hPa | 0 mm | - | 360 W/m² | - |
| 1777479102 | 15.56° C | 87% | 1012 hPa | 0 mm | - | 455 W/m² | - |
| 1777478799 | 15° C | 88% | 1012.3 hPa | 0 mm | - | 436 W/m² | - |
| 1777478496 | 15° C | 88% | 1012.2 hPa | 0 mm | - | 399 W/m² | - |
| 1777478193 | 15° C | 89% | 1012.3 hPa | 0 mm | - | 378 W/m² | - |
| 1777477889 | 14.44° C | 89% | 1012.3 hPa | 0 mm | - | 155 W/m² | - |
| 1777477584 | 15° C | 89% | 1012.3 hPa | 0 mm | - | 157 W/m² | - |
| 1777477281 | 14.44° C | 87% | 1012.3 hPa | 0 mm | - | 180 W/m² | - |
| 1777476978 | 14.44° C | 87% | 1012.1 hPa | 0 mm | - | 257 W/m² | - |
| 1777476676 | 14.44° C | 88% | 1012.2 hPa | 0 mm | - | 247 W/m² | - |
| 1777476372 | 14.44° C | 90% | 1012 hPa | 0 mm | - | 196 W/m² | - |
| 1777476069 | 15° C | 88% | 1012.4 hPa | 0 mm | - | 167 W/m² | - |
| 1777475764 | 15.56° C | 87% | 1012.2 hPa | 0 mm | - | 317 W/m² | - |
| 1777475461 | 15° C | 89% | 1012.2 hPa | 0 mm | - | 871 W/m² | - |
| 1777475161 | 15° C | 88% | 1012.1 hPa | 0 mm | - | 582 W/m² | - |
| 1777474858 | 14.44° C | 92% | 1012.2 hPa | 0 mm | - | 777 W/m² | - |
| 1777474553 | 13.89° C | 92% | 1012.2 hPa | 0 mm | - | 311 W/m² | - |
| 1777474251 | 13.89° C | 94% | 1012.3 hPa | 0 mm | - | 434 W/m² | - |
* Rain latest hour (hover to see other rain measurements)
** Current wind speed in m/s (hover to see current wind gust speed)